When you browse on this site, cookies collect data to enhance your experience and personalize the content and advertising you see.
Visit our Privacy Policy to learn more. By continuing to use the site, you agree to this use of cookies and data.
  • In Netherlands
  • List of Countries
  • For 7 days
  • Water Temperature
  • Satellite Maps
  • Weather Map
  • Weather Widgets
  • user-avatar
    Login

    Hourly Weather Liverpool

    Today, 27 June, Thursday

    Time Temperature Precipitation Wind Pressure Humidity
    00:00 +13°C° 0 mm 3 mps 773 mmHg 85%
    01:00 +12°C° 0 mm 3 mps 773 mmHg 85%
    02:00 +13°C° 0 mm 2 mps 773 mmHg 84%
    03:00 +12°C° 0 mm 2 mps 772 mmHg 83%
    04:00 +13°C° 0 mm 2 mps 772 mmHg 79%
    05:00 +13°C° 0 mm 2 mps 772 mmHg 75%
    06:00 +14°C° 0 mm 2 mps 772 mmHg 71%
    07:00 +15°C° 0 mm 2 mps 772 mmHg 65%
    08:00 +17°C° 0 mm 2 mps 772 mmHg 60%
    09:00 +18°C° 0 mm 3 mps 773 mmHg 54%
    10:00 +20°C° 0 mm 3 mps 772 mmHg 54%
    11:00 +21°C° 0 mm 3 mps 772 mmHg 55%
    12:00 +24°C° 0 mm 3 mps 772 mmHg 55%
    13:00 +23°C° 0 mm 4 mps 772 mmHg 56%
    14:00 +25°C° 0 mm 4 mps 771 mmHg 56%
    15:00 +25°C° 0 mm 4 mps 771 mmHg 57%
    16:00 +25°C° 0 mm 4 mps 771 mmHg 59%
    17:00 +23°C° 0 mm 5 mps 771 mmHg 61%
    18:00 +22°C° 0 mm 5 mps 770 mmHg 64%
    19:00 +21°C° 0 mm 5 mps 770 mmHg 66%
    20:00 +19°C° 0 mm 5 mps 771 mmHg 68%
    21:00 +16°C° 0 mm 5 mps 771 mmHg 70%
    22:00 +15°C° 0 mm 5 mps 771 mmHg 72%
    23:00 +15°C° 0 mm 4 mps 771 mmHg 73%

    Tomorrow, 28 June, Friday

    Time Temperature Precipitation Wind Pressure Humidity
    00:00 +14°C° 0 mm 4 mps 771 mmHg 74%
    01:00 +13°C° 0 mm 4 mps 771 mmHg 76%
    02:00 +13°C° 0 mm 4 mps 770 mmHg 78%
    03:00 +12°C° 0 mm 4 mps 770 mmHg 79%
    04:00 +13°C° 0 mm 4 mps 770 mmHg 78%
    05:00 +13°C° 0 mm 4 mps 769 mmHg 77%
    06:00 +13°C° 0 mm 4 mps 769 mmHg 76%
    07:00 +15°C° 0 mm 5 mps 769 mmHg 72%
    08:00 +16°C° 0 mm 5 mps 768 mmHg 68%
    09:00 +19°C° 0 mm 6 mps 768 mmHg 64%
    10:00 +20°C° 0 mm 6 mps 768 mmHg 62%
    11:00 +22°C° 0 mm 6 mps 767 mmHg 60%
    12:00 +23°C° 0 mm 6 mps 767 mmHg 58%
    13:00 +24°C° 0 mm 6 mps 766 mmHg 59%
    14:00 +24°C° 0 mm 6 mps 766 mmHg 59%
    15:00 +26°C° 0 mm 6 mps 766 mmHg 59%
    16:00 +24°C° 0 mm 6 mps 765 mmHg 63%
    17:00 +24°C° 0 mm 6 mps 765 mmHg 66%
    18:00 +23°C° 0 mm 6 mps 764 mmHg 69%
    19:00 +22°C° 0 mm 6 mps 764 mmHg 73%
    20:00 +20°C° 0 mm 6 mps 764 mmHg 77%
    21:00 +19°C° 0 mm 5 mps 764 mmHg 81%
    22:00 +17°C° 0 mm 5 mps 764 mmHg 81%
    23:00 +16°C° 0 mm 5 mps 764 mmHg 82%

    Day after tomorrow, 29 June, Saturday

    Time Temperature Precipitation Wind Pressure Humidity
    00:00 +16°C° 0 mm 5 mps 764 mmHg 82%
    01:00 +15°C° 0 mm 5 mps 764 mmHg 82%
    02:00 +14°C° 0 mm 5 mps 763 mmHg 82%
    03:00 +14°C° 0 mm 6 mps 763 mmHg 82%
    04:00 +14°C° 0 mm 6 mps 762 mmHg 81%
    05:00 +15°C° 0 mm 5 mps 762 mmHg 80%
    06:00 +15°C° 0 mm 5 mps 762 mmHg 80%
    07:00 +17°C° 0 mm 5 mps 761 mmHg 78%
    08:00 +19°C° 0 mm 4 mps 761 mmHg 76%
    09:00 +20°C° 0 mm 4 mps 761 mmHg 74%
    10:00 +21°C° 0 mm 3 mps 760 mmHg 75%
    11:00 +22°C° 0 mm 3 mps 760 mmHg 75%
    12:00 +24°C° 0 mm 2 mps 759 mmHg 75%
    13:00 +23°C° 0.1 mm 2 mps 759 mmHg 78%
    14:00 +21°C° 0.1 mm 3 mps 759 mmHg 82%
    15:00 +21°C° 0.1 mm 3 mps 758 mmHg 85%
    16:00 +20°C° 0.1 mm 2 mps 758 mmHg 84%
    17:00 +20°C° 0.1 mm 2 mps 758 mmHg 84%
    18:00 +21°C° 0.1 mm 1 mps 758 mmHg 83%
    19:00 +19°C° 0 mm 2 mps 758 mmHg 83%
    20:00 +18°C° 0 mm 2 mps 758 mmHg 82%
    21:00 +17°C° 0 mm 3 mps 758 mmHg 82%
    22:00 +16°C° 0 mm 3 mps 758 mmHg 82%
    23:00 +15°C° 0 mm 4 mps 758 mmHg 82%

    30 June, Sunday

    Time Temperature Precipitation Wind Pressure Humidity
    00:00 +14°C° 0 mm 4 mps 759 mmHg 82%
    01:00 +14°C° 0 mm 4 mps 759 mmHg 84%
    02:00 +14°C° 0 mm 4 mps 759 mmHg 87%
    03:00 +14°C° 0 mm 4 mps 759 mmHg 89%
    04:00 +15°C° 0 mm 4 mps 759 mmHg 87%
    05:00 +15°C° 0 mm 4 mps 759 mmHg 85%
    06:00 +16°C° 0 mm 3 mps 759 mmHg 83%
    07:00 +18°C° 0 mm 4 mps 759 mmHg 77%
    08:00 +19°C° 0 mm 4 mps 760 mmHg 70%
    09:00 +20°C° 0 mm 4 mps 760 mmHg 63%
    10:00 +20°C° 0 mm 5 mps 760 mmHg 61%
    11:00 +21°C° 0 mm 5 mps 760 mmHg 60%
    12:00 +21°C° 0 mm 5 mps 759 mmHg 58%
    13:00 +21°C° 0 mm 6 mps 759 mmHg 57%
    14:00 +22°C° 0 mm 6 mps 759 mmHg 57%
    15:00 +22°C° 0 mm 6 mps 759 mmHg 56%
    16:00 +21°C° 0 mm 6 mps 759 mmHg 59%
    17:00 +20°C° 0 mm 6 mps 760 mmHg 62%
    18:00 +20°C° 0 mm 6 mps 760 mmHg 65%
    19:00 +17°C° 0 mm 6 mps 760 mmHg 70%
    20:00 +16°C° 0 mm 6 mps 760 mmHg 75%
    21:00 +15°C° 0 mm 6 mps 761 mmHg 80%
    22:00 +14°C° 0 mm 6 mps 761 mmHg 77%
    23:00 +14°C° 0 mm 6 mps 761 mmHg 75%

    1 July, Monday

    Time Temperature Precipitation Wind Pressure Humidity
    00:00 +13°C° 0 mm 6 mps 761 mmHg 73%
    01:00 +13°C° 0 mm 6 mps 761 mmHg 73%
    02:00 +11°C° 0 mm 6 mps 762 mmHg 74%
    03:00 +11°C° 0 mm 6 mps 762 mmHg 75%
    04:00 +11°C° 0 mm 6 mps 762 mmHg 75%
    05:00 +11°C° 0 mm 7 mps 762 mmHg 75%
    06:00 +12°C° 0 mm 7 mps 762 mmHg 75%
    07:00 +14°C° 0 mm 7 mps 762 mmHg 71%
    08:00 +15°C° 0 mm 7 mps 762 mmHg 67%
    09:00 +16°C° 0 mm 7 mps 763 mmHg 63%
    10:00 +16°C° 0 mm 7 mps 763 mmHg 63%
    11:00 +17°C° 0 mm 7 mps 763 mmHg 62%
    12:00 +17°C° 0 mm 8 mps 763 mmHg 62%
    13:00 +17°C° 0 mm 8 mps 763 mmHg 62%
    14:00 +18°C° 0 mm 8 mps 763 mmHg 63%
    15:00 +18°C° 0 mm 8 mps 763 mmHg 63%
    16:00 +17°C° 0 mm 8 mps 763 mmHg 65%
    17:00 +17°C° 0 mm 8 mps 764 mmHg 67%
    18:00 +16°C° 0 mm 8 mps 764 mmHg 69%
    19:00 +15°C° 0 mm 7 mps 765 mmHg 70%
    20:00 +14°C° 0 mm 7 mps 765 mmHg 71%
    21:00 +12°C° 0 mm 7 mps 766 mmHg 73%
    22:00 +13°C° 0 mm 6 mps 766 mmHg 74%
    23:00 +11°C° 0 mm 6 mps 767 mmHg 74%

    2 July, Tuesday

    Time Temperature Precipitation Wind Pressure Humidity
    00:00 +11°C° 0 mm 6 mps 767 mmHg 75%
    01:00 +10°C° 0 mm 5 mps 767 mmHg 77%
    02:00 +11°C° 0 mm 4 mps 768 mmHg 79%
    03:00 +11°C° 0 mm 4 mps 768 mmHg 80%
    04:00 +11°C° 0 mm 3 mps 768 mmHg 79%
    05:00 +12°C° 0 mm 3 mps 768 mmHg 78%
    06:00 +12°C° 0 mm 3 mps 768 mmHg 76%
    07:00 +13°C° 0 mm 3 mps 769 mmHg 72%
    08:00 +14°C° 0 mm 3 mps 769 mmHg 67%
    09:00 +16°C° 0 mm 3 mps 769 mmHg 63%
    10:00 +17°C° 0 mm 4 mps 769 mmHg 60%
    11:00 +17°C° 0 mm 4 mps 769 mmHg 57%
    12:00 +18°C° 0 mm 4 mps 769 mmHg 54%
    13:00 +18°C° 0 mm 4 mps 769 mmHg 55%
    14:00 +18°C° 0 mm 4 mps 769 mmHg 55%
    15:00 +17°C° 0 mm 5 mps 769 mmHg 55%
    16:00 +17°C° 0 mm 4 mps 769 mmHg 58%
    17:00 +17°C° 0 mm 4 mps 768 mmHg 61%
    18:00 +15°C° 0 mm 4 mps 768 mmHg 64%
    19:00 +14°C° 0 mm 4 mps 769 mmHg 68%
    20:00 +13°C° 0 mm 3 mps 769 mmHg 72%
    21:00 +12°C° 0 mm 3 mps 769 mmHg 76%
    22:00 +11°C° 0 mm 3 mps 769 mmHg 78%
    23:00 +11°C° 0 mm 3 mps 769 mmHg 79%
    Show more